This is the latest recevied weather packets stored in our database for station/object DM8MH-13. If no packets are shown the sender has not sent any weather packets the latest 10 day(s).
| Time | Temp. | Humidity | Pressure | Rain* | Wind** | Luminosity | Snow |
|---|---|---|---|---|---|---|---|
| 1777905072 | 23.89° C | 50% | 1011.2 hPa | 0 mm | - | 478 W/m² | - |
| 1777904471 | 23.89° C | 50% | 1011.4 hPa | 0 mm | - | 490 W/m² | - |
| 1777903871 | 23.33° C | 50% | 1011.6 hPa | 0 mm | - | 330 W/m² | - |
| 1777903271 | 23.89° C | 50% | 1011.6 hPa | 0 mm | - | 398 W/m² | - |
| 1777902671 | 23.89° C | 51% | 1011.7 hPa | 0 mm | - | 563 W/m² | - |
| 1777902071 | 23.33° C | 53% | 1011.9 hPa | 0 mm | - | 399 W/m² | - |
| 1777901472 | 22.78° C | 54% | 1011.9 hPa | 0 mm | - | 553 W/m² | - |
| 1777900871 | 22.78° C | 53% | 1012 hPa | 0 mm | - | 200 W/m² | - |
| 1777900271 | 22.78° C | 52% | 1012.1 hPa | 0 mm | - | 555 W/m² | - |
| 1777899671 | 22.78° C | 52% | 1012.1 hPa | 0 mm | - | 223 W/m² | - |
| 1777899072 | 23.33° C | 52% | 1012.2 hPa | 0 mm | - | 240 W/m² | - |
| 1777898472 | 23.33° C | 51% | 1012.4 hPa | 0 mm | - | 243 W/m² | - |
| 1777897872 | 23.33° C | 52% | 1012.5 hPa | 0 mm | - | 349 W/m² | - |
| 1777897272 | 23.89° C | 52% | 1012.4 hPa | 0 mm | - | 486 W/m² | - |
| 1777896672 | 23.33° C | 52% | 1012.3 hPa | 0 mm | - | 680 W/m² | - |
| 1777896072 | 22.78° C | 53% | 1012.3 hPa | 0 mm | - | 495 W/m² | - |
| 1777895471 | 22.78° C | 54% | 1012.5 hPa | 0 mm | - | 297 W/m² | - |
| 1777894871 | 22.22° C | 54% | 1012.5 hPa | 0 mm | - | 460 W/m² | - |
| 1777894272 | 22.22° C | 54% | 1012.4 hPa | 0 mm | - | 316 W/m² | - |
| 1777893671 | 22.22° C | 55% | 1012.5 hPa | 0 mm | - | 353 W/m² | - |
| 1777893071 | 22.78° C | 54% | 1012.5 hPa | 0 mm | - | 303 W/m² | - |
| 1777892472 | 22.22° C | 54% | 1012.6 hPa | 0 mm | - | 369 W/m² | - |
| 1777891872 | 22.78° C | 53% | 1012.7 hPa | 0 mm | - | 273 W/m² | - |
| 1777891271 | 22.78° C | 54% | 1012.8 hPa | 0 mm | - | 825 W/m² | - |
| 1777890672 | 22.78° C | 55% | 1012.9 hPa | 0 mm | - | 581 W/m² | - |
* Rain latest hour (hover to see other rain measurements)
** Current wind speed in m/s (hover to see current wind gust speed)